P/2007 T6 ( Catalina )

Japanese version
Home page
Total 5,708 html files since Dec. 4, 1995
Updated on April 4, 2008

---------------------------------------------------------------------

* Profile

Discovery Date October 13, 2007
Magnitude 17.8 mag
Discoverer Catalina Sky Survey

* Orbital Elements

Epoch 2007 Aug. 8.0 TT = JDT 2454320.5
T 2007 Aug. 19.66798 TT                                 MPC
q   2.2322731            (2000.0)            P               Q
n   0.10352920     Peri.  335.86923     +0.16986851     -0.91420964
a   4.4918732      Node   102.63405     +0.95433437     +0.05950624
e   0.5030418      Incl.   22.15107     +0.24574500     +0.40084877
P   9.52

* Finding Charts

* Magnitudes Graph

        m1 = 12.0 + 5 log d + 10.0 log r

---------------------------------------------------------------------

The orbital elements are published on M.P.E.C. 2007-Y08.
The charts are made with StellaNavigator Ver.8 (AstroArts).
The magnitudes graphs are made with Comet for Windows.

---------------------------------------------------------------------

Copyright(C) 1995-2007 Seiichi Yoshida (comet@aerith.net). All rights reserved.